Flag for U.S.A. Weather past 2 weeks in Scranton, Pennsylvania, U.S.A.

Now
87 °F

Sunny.


Feels Like: 85 °F
Forecast: 61 / 87 °F
Wind: 15 mph from Southwest

Location: Barre - Scranton - Wilkes-Barre / Scranton International Airport

Current Time: May 25, 2015 at 5:52:06 PM

Latest Report: May 25, 2015 at 4:54 PM


Visibility: 10 mi

Pressure: 30.10 "Hg

Humidity: 29%

Dew point: 51 °F

Location of ScrantonLocation

Historic Weather in Scranton — Graph

°F

Scranton temperature yesterday

Maximum temperature yesterday: 79 °F (at 2:54 PM)
Minimum temperature yesterday: 40 °F (at 5:54 AM)
Average temperature yesterday: 64 °F

Past Weeks' High & Low Weather Summary

 TemperatureHumidityPressure
High87 °F (May 10, 3:54 PM)94% (May 17, 3:54 AM)30.46 "Hg (May 17, 3:54 AM)
Low37 °F (May 14, 5:54 AM)19% (May 22, 5:54 PM)29.75 "Hg (May 19, 5:54 PM)
Average64 °F58%30.10 "Hg
* Reported May 10 3:54 PM — May 25 3:54 PM, Scranton, Weather by CustomWeather, © 2015

Note: Actual official high and low records may vary slightly from our data, if they occured in-between our weather recording intervals... More about our weather records

Advertising

Scranton weather history for previous 24 hours

 ConditionsComfort  
Time TempWeatherWind HumidityBarometerVisibility
3:54 PM
Mon, May 25
87 °FPassing clouds.13 mph28%30.11 "Hg10 mi
2:54 PM87 °FPassing clouds.12 mph31%30.10 "Hg10 mi
1:54 PM85 °FSunny.3 mph35%30.13 "Hg10 mi
12:54 PM85 °FPassing clouds.13 mph35%30.16 "Hg10 mi
11:54 AM83 °FSunny.10 mph40%30.18 "Hg10 mi
10:54 AM80 °FOvercast.13 mph42%30.19 "Hg10 mi
9:54 AM77 °FPassing clouds.10 mph45%30.20 "Hg10 mi
8:54 AM72 °FMostly cloudy.8 mph53%30.22 "Hg10 mi
7:54 AM68 °FScattered clouds.No wind63%30.22 "Hg10 mi
6:54 AM65 °FOvercast.5 mph63%30.21 "Hg10 mi
5:54 AM63 °FPassing clouds.No wind63%30.21 "Hg10 mi
4:54 AM63 °FPassing clouds.No wind58%30.21 "Hg10 mi
3:54 AM65 °FClear.No wind51%30.22 "Hg10 mi
2:54 AM67 °FClear.No wind42%30.21 "Hg10 mi
1:54 AM67 °FClear.No wind42%30.21 "Hg10 mi
12:54 AM66 °FClear.3 mph45%30.22 "Hg10 mi
11:54 PM
Sun, May 24
66 °FClear.3 mph45%30.22 "Hg10 mi
10:54 PM68 °FClear.3 mph42%30.22 "Hg10 mi
9:54 PM68 °FClear.3 mph42%30.23 "Hg10 mi
8:54 PM72 °FSunny.No wind35%30.22 "Hg10 mi
7:54 PM75 °FSunny.5 mph30%30.21 "Hg10 mi
6:54 PM77 °FSunny.8 mph26%30.21 "Hg10 mi
5:54 PM79 °FSunny.8 mph23%30.21 "Hg10 mi
Weather by CustomWeather, © 2015

See weather overviewHow to use our weather pages